Volver al catálogo

CZ-4C R/B

ActivoSSO
NORAD 53699·ROCKET BODY·🇨🇳 China

Lanzado Sep 2, 2022 desde Jiuquan Satellite Launch Center

Loading…

Próximos Pases (próximas 24 horas)

TLE

ActualizadoSource: Space-Track

Época: Sep 14, 2026, 05:55 UTC

1 53699U 22106B   26257.24693576  .00002591  00000-0  17293-3 0  9999
2 53699  98.0469 343.8593 0107310 212.0118 147.4559 15.03404560220302

Sigue CZ-4C R/B en tiempo real con AllMySat

Download on the App Store